www.pogodaiklimat.ru

Погода и климат >> Архив погоды >> Беларусь >> Ганцевичи


ПОГОДА в Ганцевичах

  • Прогноз погоды в Ганцевичах
  • Монитор погоды в Ганцевичах
  • Климат города

АРХИВ ПОГОДЫ в Ганцевичах

Время (UTC), дата Ветер
(напр.,м/с)
 
Видим.   Явления Облачность Т
(С)
Тd
(С)
f
(%)
Тe
(С)
Тes
(С)
Комфортность P
(гПа)
Po
(гПа)
Тmin
(С)
Tmax
(С)
R
(мм)
R24
(мм)
S
(см)
15 16.04 ЮВ 3 21 км 9/0 2000 м
[Ac trans Ci fib]
+21.3 +9.2 46 +23 +24 комфорт 1013.7 995.3
18 16.04 штиль 0 26 км 9/0 2000 м
[Ac trans]
+16.2 +9.2 63 +16 +16 1014.4 995.6 +23.8
21 16.04 штиль 0 10 км н/о +12.7 +8.8 77 +12 +12 1015.0 996.2
00 17.04 ЮВ 2 10 км н/о +12.8 +10.0 83 +12 +12 1014.0 995.2
03 17.04 штиль 0 10 км н/о +12.0 +10.1 88 +11 +11 1014.0 995.1 +11.6
06 17.04 Ю 1 12 км 9/0 2000 м
[Ac trans]
+13.2 +10.6 84 +13 +16 1014.3 995.3 +11.6
09 17.04 З 2 18 км 9/0 2000 м
[Ac trans]
+19.5 +13.9 70 +22 +27 комфорт 1014.5 996.0
12 17.04 ЮЗ 4
{10}
20 км 9/3 1000 м
[Sc Ac trans]
+21.5 +12.3 56 +24 +26 комфорт 1014.7 996.3
15 17.04 З 4
{10}
10 км 10/10 600 м
[Cb calv]
+17.7 +13.9 78 +17 +17 1016.0 997.3
18 17.04 СЗ 5-11
{11}
35 км в посл. час ливневой дождь 10/10 420 м
[Cb cap]
+13.4 +11.6 89 +11 +11 1018.9 999.8 +22.4 0.0
21 17.04 СЗ 3
{11}
10 км н/о +10.4 +6.5 77 +8 +8 1022.0 1002.9
00 18.04 СЗ 4 10 км н/о +8.6 +5.7 82 +6 +6 1024.0 1004.7
03 18.04 З 2 10 км н/о +7.3 +5.6 89 +5 +5 1025.0 1005.6 +7.3
06 18.04 СЗ 3 25 км дымка 9/9 270 м
[Sc]
+8.1 +6.4 89 +5 +6 1025.7 1006.1 +6.9 0.0
09 18.04 З 5 21 км 9/9 600 м
[Sc]
+11.5 +7.4 76 +9 +10 1025.7 1006.4
12 18.04 СЗ 6-10
{11}
20 км 9/9 1020 м
[Sc]
+14.6 +6.5 58 +13 +13 1025.1 1006.0
15 18.04 СЗ 6-11
{13}
35 км 8/8 1440 м
[Sc]
+15.8 +5.4 50 +15 +15 1023.6 1004.6
18 18.04 СЗ 2
{12}
35 км 8/0 2000 м
[Ac trans]
+13.1 +5.8 61 +13 +13 1023.9 1004.7 +16.4
21 18.04 СЗ 5
{12}
10 км н/о +12.0 +5.2 63 +10 +10 1024.0 1004.9
00 19.04 СЗ 3
{10}
10 км н/о +10.8 +6.2 73 +9 +9 1022.0 1002.9
03 19.04 СЗ 4
{10}
10 км н/о +9.6 +6.1 79 +7 +7 1022.0 1002.8 +9.4
06 19.04 СЗ 5 35 км 8/0 2000 м
[Ac trans Ci fib]
+10.4 +6.9 79 +7 +9 1021.0 1001.7 +9.4
09 19.04 СЗ 5-12
{13}
35 км 6/4 1000 м
[Cu med, cong Ci fib]
+13.2 +5.5 60 +11 +15 1021.1 1002.0
12 19.04 СЗ 6-12
{14}
20 км 8/8 960 м
[Cu med, cong]
+16.5 +4.6 45 +15 +16 1018.8 1000.0
15 19.04 С 5-13
{16}
28 км 8/8 840 м
[Cb calv]
+15.2 +3.1 44 +14 +14 1019.0 1000.1
18 19.04 С 3
{16}
35 км 3/0 2000 м
[Ac trans]
+10.8 +3.9 62 +9 +9 1022.2 1002.9 +17.4
21 19.04 СЗ 1
{10}
10 км н/о +9.2 +4.2 71 +9 +9 1024.0 1004.7
00 20.04 СЗ 2 10 км н/о +8.1 +4.1 76 +6 +6 1024.0 1004.7
03 20.04 СЗ 3 10 км н/о +5.9 +3.4 84 +3 +3 1025.0 1005.5 +5.9
06 20.04 С 2 35 км 1/0
[Ci fib]
+9.3 +4.5 72 +8 +12 1025.3 1005.8 +5.5
09 20.04 С 3 35 км 4/3 1000 м
[Cu hum Ci fib]
+14.0 +4.6 53 +13 +20 1025.1 1006.0
12 20.04 С 3 20 км 3/1 1000 м
[Cu hum Ci fib]
+17.3 +5.5 46 +17 +25 1023.8 1004.9
15 20.04 СЗ 4 35 км 1/0
[Ci fib]
+17.8 +2.6 36 +18 +20 1022.0 1003.2
18 20.04 ЮЗ 1 25 км ясно +12.8 +3.7 54 +13 +13 1021.2 1002.0 +18.2
21 20.04 ЮЗ 1 10 км н/о +10.7 +3.9 63 +11 +11 1020.0 1000.9
00 21.04 З 1 10 км н/о +9.7 +3.7 66 +9 +9 1018.0 998.9
03 21.04 ЮЗ 2 10 км н/о +8.8 +3.6 70 +7 +7 1015.0 995.9 +8.8
06 21.04 ЮЗ 4 35 км 3/0
[Ci fib]
+14.8 +4.4 50 +14 +17 1010.8 992.0 +8.7
09 21.04 З 5 20 км ясно +21.1 +8.6 45 +22 +29 комфорт 1007.7 989.4
12 21.04 СЗ 8-14
{14}
20 км 3/3 1000 м
[Cu hum]
+23.2 +7.8 37 +24 +26 комфорт 1005.9 987.8
15 21.04 СЗ 9-17
{17}
22 км ясно +20.5 -0.6 24 +20 +20 1007.2 988.9
18 21.04 СЗ 5
{17}
35 км ясно +15.1 -0.6 34 +14 +14 1010.4 991.6 +23.7
21 21.04 СЗ 4
{10}
10 км н/о +11.5 +2.3 53 +10 +10 1012.0 993.1
00 22.04 СЗ 3 10 км н/о +8.9 +3.3 68 +7 +7 1013.0 993.9
03 22.04 З 2 10 км н/о +5.8 +3.1 83 +3 +3 1014.0 994.7 +5.7
06 22.04 З 4 35 км ясно +9.7 +3.3 64 +7 +10 1013.6 994.4 +4.9
09 22.04 З 4 30 км 1/1 1000 м
[Cu hum]
+15.4 +2.4 42 +15 +22 1012.3 993.5
12 22.04 СЗ 5
{11}
20 км 8/8 1080 м
[Cu med, cong]
+16.6 +0.8 34 +16 +17 1011.3 992.6
15 22.04 СЗ 5
{11}
10 км 6 баллов +16.8 +0.8 34 +16 +17 1011.0 992.5
18 22.04 СЗ 1
{11}
35 км 6/4 600 м
[Sc diur, vesp Ci fib]
+13.9 +0.1 39 +15 +15 1012.2 993.3 +18.4
21 22.04 штиль 0 10 км н/о +6.8 +2.1 72 +6 +6 1014.0 994.8
00 23.04 штиль 0 10 км н/о +3.2 +1.6 89 +2 +2 1015.0 995.5
03 23.04 штиль 0 10 км н/о +1.0 +0.4 96 -0 -0 1016.0 996.3 +0.5
06 23.04 СВ 1 10 км ясно +9.7 +2.1 59 +10 +15 1016.0 996.9 +0.5
09 23.04 Ю 1 7000 м 3 балла +14.1 +1.7 43 +15 +25 1016.0 997.2
12 23.04 В 1 10 км 3 балла +16.2 +1.1 36 +17 +27 1014.0 995.4

 

Местоположение метеостанции Ганцевичи (Брестская область, Беларусь): широта 52.75 долгота 26.44 высота над уровнем моря 157 м.

В архиве по умолчанию представлена погода в Ганцевичах за последнюю неделю. Архивные данные за месяц целиком и за предыдущие месяцы, начиная с января 2011 года, Вы можете получить, выбрав интересующий диапазон дат из раскрывающегося списка и нажав кнопку "Ввод!".


*Определитесь, кто Вы:
робот инопланетянин человек

Внимание! Время в таблицах - всемирное. Для получения местного времени необходимо прибавить поправку, которая в Ганцевичах равна 3 ч.

Смотрите также архив погоды в соседних городах и на ближайших метеорологических станциях:

Погода в Барановичах (Брестская область, Беларусь) (53 км)
Погода в Полесской (Брестская область, Беларусь) (53 км)
Погода в Ивацевичах (Брестская область, Беларусь) (73 км)
Погода в Пинске (Брестская область, Беларусь) (75 км)
Погода в Слуцке (Минская область, Беларусь) (81 км)
Погода в Столбцах (Минская область, Беларусь) (83 км)
Погода в Новогрудке (Гродненская область, Беларусь) (102 км)
Погода в Житковичах (Гомельская область, Беларусь) (113 км)
Погода в Пружанах (Брестская область, Беларусь) (133 км)
Погода в Марьиной Горке (Минская область, Беларусь) (137 км)

Пояснения к столбцам:

Ветер - указаны скорость ветра в м/с - средняя за 10 мин, порывы в срок и между сроками (в фигурных скобках) и направление, откуда дует ветер: С - северный, СВ - северо-восточный, В - восточный, ЮВ - юго-восточный, Ю - южный, ЮЗ - юго-западный, З - западный, СЗ - северо-западный.
Видимость - горизонтальная дальность видимости в метрах или километрах. При видимости от 1 до 10 км при отсутствии осадков обычно наблюдается дымка, при ухудшении видимости до 1 км и менее - туман. В сухую погоду видимость может ухудшаться дымом, пылью или мглою.
Явления - указаны атмосферные явления, наблюдавшиеся в срок или в последний час перед сроком; фигурными скобками обозначены явления, наблюдавшиеся между сроками (за 1-3 часа до срока); квадратными скобками обозначены град или гололедные отложения с указанием их диаметра в мм.
Облачность - указаны через наклонную черту общая и нижняя облачность в баллах и высота нижней границы облаков в метрах; квадратными скобками обозначены формы облаков: Ci - перистые, Cs - перисто-слоистые, Cc - перисто-кучевые, Ac - высококучевые, As - высокослоистые, Sc - слоисто-кучевые, Ns - слоисто-дождевые, Cu - кучевые, Cb - кучево-дождевые. Подробнее классификацию облаков см. в Атласе облаков (PDF).
T - Температура воздуха - температура, измеренная на высоте 2 м над землей.
Td - Температура точки росы - температура, при понижении до которой содержащийся в воздухе водяной пар достигнет насыщения.
f - Относительная влажность воздуха - влажноcть воздуха, измеренная на высоте 2 м над землей.
Te - Эффективная температура - температура, которую ощущает одетый по сезону человек в тени. Характеристика душности погоды. При расчете учитывается влияние влажности воздуха и скорости ветра на теплоощущения человека.
Tes - Эффективная температура на солнце - температура, которую ощущает человек, с поправкой на солнечный нагрев. Характеристика знойности погоды. Зависит от высоты солнца над горизонтом, облачности и скорости ветра. Ночью, в пасмурную погоду, а также при ветре 12 м/с и более поправка равна нулю.
P - Атмосферное давление - приведенное к уровню моря атмосферное давление.
Po - Атмосферное давление - измеренное на уровне метеостанции атмосферное давление.
Tmin - Минимальная температура - минимум температуры воздуха на высоте 2 м над землей.
Tmax - Максимальная температура - максимум температуры воздуха на высоте 2 м над землей.
R - Количество осадков - Количество выпавших осадков за период времени, мм. При наведении курсора мыши на число - период времени, за который выпало указанное количество осадков.
R24 - Количество осадков - Количество выпавших осадков за 24 часа, мм.
S - Снежный покров - Высота снежного покрова, см. При наведении курсора мыши на число - состояние снежного покрова и степень покрытия местности в баллах.